TimeEDT,TemperatureF,Dew PointF,Humidity,Sea Level PressureIn,VisibilityMPH,Wind Direction,Wind SpeedMPH,Gust SpeedMPH,PrecipitationIn,Events,Conditions,WindDirDegrees,DateUTC
12:55 AM,46.4,42.8,87,29.95,10.0,Calm,Calm,-,N/A,,Clear,0,2012-10-01 04:55:00
1:55 AM,45.0,41.0,86,29.96,10.0,Calm,Calm,-,N/A,,Clear,0,2012-10-01 05:55:00
2:50 AM,44.6,41.0,87,29.95,1.5,Calm,Calm,-,N/A,,Clear,0,2012-10-01 06:50:00
2:55 AM,42.1,39.9,92,29.96,0.5,Calm,Calm,-,N/A,Fog,Fog,0,2012-10-01 06:55:00
3:08 AM,42.8,39.2,87,29.94,3.0,Calm,Calm,-,N/A,,Clear,0,2012-10-01 07:08:00
3:55 AM,42.1,39.0,89,29.94,10.0,Calm,Calm,-,N/A,,Clear,0,2012-10-01 07:55:00
4:55 AM,43.0,37.9,82,29.94,10.0,SE,3.5,-,N/A,,Clear,130,2012-10-01 08:55:00
5:55 AM,41.0,37.9,89,29.94,10.0,ESE,3.5,-,N/A,,Clear,120,2012-10-01 09:55:00
6:55 AM,42.1,37.9,85,29.94,10.0,Calm,Calm,-,N/A,,Clear,0,2012-10-01 10:55:00
7:55 AM,42.1,37.9,85,29.94,10.0,ESE,3.5,-,N/A,Fog,Shallow Fog,110,2012-10-01 11:55:00
8:55 AM,45.0,41.0,86,29.96,10.0,Calm,Calm,-,N/A,,Clear,0,2012-10-01 12:55:00
9:55 AM,52.0,46.0,80,29.96,10.0,Calm,Calm,-,N/A,,Partly Cloudy,0,2012-10-01 13:55:00
10:55 AM,60.1,48.0,64,29.95,10.0,Calm,Calm,-,N/A,,Partly Cloudy,0,2012-10-01 14:55:00
11:55 AM,63.0,48.0,58,29.94,10.0,SW,4.6,-,N/A,,Partly Cloudy,220,2012-10-01 15:55:00
12:55 PM,64.9,45.0,48,29.92,10.0,WSW,4.6,-,N/A,,Scattered Clouds,250,2012-10-01 16:55:00
1:55 PM,64.9,45.0,48,29.91,10.0,WSW,5.8,-,N/A,,Partly Cloudy,240,2012-10-01 17:55:00
2:55 PM,64.9,46.0,50,29.89,10.0,WSW,9.2,-,N/A,,Partly Cloudy,240,2012-10-01 18:55:00
3:55 PM,64.0,45.0,50,29.88,10.0,West,6.9,-,N/A,,Partly Cloudy,270,2012-10-01 19:55:00
4:55 PM,64.0,46.9,54,29.87,10.0,WNW,5.8,-,N/A,,Clear,290,2012-10-01 20:55:00
5:55 PM,62.1,46.9,58,29.87,10.0,West,6.9,-,N/A,,Clear,280,2012-10-01 21:55:00
6:55 PM,61.0,48.0,62,29.87,10.0,NNW,5.8,-,N/A,,Clear,330,2012-10-01 22:55:00
7:55 PM,57.9,46.9,67,29.87,10.0,Calm,Calm,-,N/A,,Clear,0,2012-10-01 23:55:00
8:55 PM,55.0,48.0,77,29.88,10.0,Calm,Calm,-,N/A,,Clear,0,2012-10-02 00:55:00
9:55 PM,54.0,48.0,80,29.88,10.0,Calm,Calm,-,N/A,,Clear,0,2012-10-02 01:55:00
10:55 PM,52.0,46.9,83,29.88,10.0,Calm,Calm,-,N/A,,Clear,0,2012-10-02 02:55:00
11:55 PM,53.1,46.0,77,29.88,10.0,Calm,Calm,-,N/A,,Clear,0,2012-10-02 03:55:00